CZ-2C R/B, 48862

Orbit data source: Space-Track

CZ-2C R/B, 48862 is space debris in LEO originally from a launch on Fri, 18 Jun 2021 UTC launched from the Xichang Space Center, China (XSC). Debris objects in space refer to the collection of defunct objects orbiting the Earth. Examples of debris include non-operational satellites, rocket bodies, and fragments generated from explosions, collisions, or faulty payload assembly.

Loading next visibility...
Identifier
48862, 2021-055C
Orbit
LEO
Country
Flag of CNCN / PRC
Related business
Manufacturer
CALT
Mission
Spacecraft
Bus & Motor
CZ-2 STAGE 2, Unknown motor
Mass
~3,800 kg wet, ~3,800 kg dry
Launch date (UTC)
2021-06-18 (5 years ago)
Launch vehicle
Unknown
Launch site
Xichang Space Center, China (XSC)
Object type
Payload
Rocket body
Debris
Shape & HBR
Cyl, 3.7 m
Radar Cross Section
23.715 m², Large (>1 m²)

Expand to show TLE details & history
Last TLE update: 2 days ago

TLE from 2 days ago
0 CZ-2C R/B
1 48862U 21055C   26171.47229162  .00000714  00000-0  75338-4 0  9993
2 48862  35.0720 326.2113 0068186 293.1400  66.2131 14.88425276271717
Epoch: 2026-06-20T11:20Z
TLE epoch observation values (Epoch: 2026-06-20T11:20:05.995Z)
Latitude
-0.00006°
Longitude
-112.50018°
Altitude
582.864 km
Speed
7.581 km/s
True Right ascension
21h 44m 50s
True Declination
0° 00' 00"
Sunlit
Object was in full shadow at epoch
Visualization orbit readout
Latitude
Unknown
Longitude
Unknown
Altitude
Unknown
Speed
Unknown
Apparent Right ascension
Unknown
Apparent Declination
Unknown
Sunlit
N/A
Visualization observer readout
Local Sidereal Time
21:38:04
Azimuth
Unknown
Elevation
Unknown
Doppler factor
Unknown
Orbital elements
Apogee altitude
653.667 km
Perigee altitude
558.423 km
Semi-major axis
6,984.182 km
Eccentricity
0.00682
Inclination
35.072°
RAAN
326.2113°
Arg. of periapsis
293.14°
True anomaly
66.93053°
Mean anomaly
66.2131°
Eccentric anomaly
66.57157°
Mean motion
3.71852 °/min
Orbital period
96.81 mins
BSTAR
0.000075338
Loading maneuver chart data...
Computing Atmospheric mass density...
Loading historical data...
Loading historical data...
Loading historical data...
Loading historical data...
Loading historical data...
Loading historical data...
Loading historical data...
Other satellites on launch #55 in the year 2021 (2021-06-18 UTC)

Documentation

Showing up to 5 results
|